Current Conditions
Clear
Conditions



Pressure
1014.92 (mb) - 29.97 (inHG)
Visibility

10.0 (mimiles) - 16.1 (km)
   Temperature
64  °F
18°C
52  °F
Dewpoint
64  %
 Humidity
   Wind Speed
5  mph
4  kts
8  km/h
2.2  m/s
   Wind Direction
 90°
Due East
   Airport Data
KBHC
Location Baxley Municipal 5 mi (8.05 km)
Metar :KBHC 050155Z AUTO 09004KT 10SM CLR 18/11 A2997 RMK AO2
Sat 4th April 20:55 pm
   Raw Metar Info
Raw METAR is the most common format in the world for the transmission of observational weather data. It is highly standardized through the International Civil Aviation Organization (ICAO), which allows it to be understood throughout most of the world.
   API Info
Data Provided by
https://www.checkwx.com/weather/KBHC
   © Info
CSS/SVG/PHP scripts were developed by weather34.com for use in the weather34 template © 2015-2020

Guide Info provided by Metar-Wikipedia